139  
ASCA42 TJSJ 181310  
RWRPR  
PUERTO RICO/U.S. VIRGIN ISLANDS HOURLY WEATHER ROUNDUP  
NATIONAL WEATHER SERVICE SAN JUAN PR  
900 AM AST MON OCT 18 2021  
 
PRZ001>002-007>008-010-181400-  
PUERTO RICO  
 
CITY SKY/WX TMP DP RH WIND PRES REMARKS
 
SAN JUAN LMM MOSUNNY 84 75 74 CALM 29.95R HX 92  
AGUADILLA SUNNY 84 75 74 E3 29.97R HX 92  
CEIBA MOSUNNY 84 81 89 E6 29.96R HX 98  

 
 
VIZ001>002-181400-  
U.S. VIRGIN ISLANDS  
 
CITY SKY/WX TMP DP RH WIND PRES REMARKS
 
CHARLOTTE AMA MOSUNNY 82 75 78 S3 29.94R  
CHRISTIANSTED MOSUNNY 84 79 84 SE5 29.95R HX 96  

 
 
HOURLY WEATHER ROUNDUP FOR THE NEWS MEDIA  
 
CITY SKY/WX TMP DP RH WIND PRES REMARKS
 
ORLANDO SUNNY 66 56 70 N9 30.10R  
NEW YORK PTSUNNY 53 42 66 W14 29.86S  
NEWARK PTSUNNY 52 43 71 W12 29.86R  
CHICAGO CLEAR 47 38 71 CALM 30.13S  
HARTFORD SUNNY 53 39 59 W10 29.75R  
BOSTON MOSUNNY 52 37 56 W13G24 29.74R  
DALLAS PTCLDY 50 43 77 E3 30.15S  
PHILADELPHIA MOSUNNY 53 44 71 W14 29.93R  
LOS ANGELES CLOUDY 61 61 100 S3 29.95R  
WASHINGTON DC SUNNY 55 41 59 W10 30.02R  
 
CLICK HERE TO GO TO PREVIOUS BULLETINS.

The Nexlab PR Page Main Text Page